Air Resources Laboratory banner image
Air Resources Laboratory web site National Oceanic and Atmospheric Administration (NOAA)

ms roundup


Office: JAN

ASUS44 KJAN 251110
RWRMS

MISSISSIPPI HOURLY WEATHER ROUNDUP
NATIONAL WEATHER SERVICE JACKSON MS
600 AM CDT FRI MAY 25 2018

NOTE: "FAIR: INDICATES FEW OR NO CLOUDS BELOW 12,000 FEET WITH NO
SIGNIFICANT WEATHER AND/OR OBSTRUCTIONS TO VISIBILITY.

MSZ001>002-007>008-010>013-018>021-025>028-034>036-251200-
NORTHWEST MISSISSIPPI

CITY           SKY/WX    TMP DP  RH WIND       PRES   REMARKS
BATESVILLE       N/A    N/A N/A N/A MISG        N/A
CLARKSDALE     PTCLDY    70  70 100 CALM      29.99S
CLEVELAND      FAIR      69  69 100 CALM      29.98S
GREENWOOD      FAIR      69  67  93 CALM      29.99R
GREENVILLE     FAIR      70  67  90 CALM      29.98R
TUNICA           N/A     68  68 100 CALM      30.00S
WINONA         FAIR      68  68 100 CALM      30.00S
$$

MSZ003>006-009-014>017-022>024-029>033-037>039-251200-
NORTHEAST MISSISSIPPI

CITY           SKY/WX    TMP DP  RH WIND       PRES   REMARKS
ABERDEEN         N/A     68  68 100 CALM      30.01R FOG
COLUMBUS AFB   FAIR      65  65 100 CALM      29.99R
CORINTH          N/A     70  70 100 CALM      30.00S
GOLDN TRIANGLE FAIR      69  68  96 S5        30.01R FOG
STARKVILLE     FOG       66  66 100 CALM      30.02R VSB 1/4
TUPELO         FAIR     N/A N/A N/A CALM      29.99S
$$

MSZ040-058-251200-
CENTRAL MISSISSIPPI

CITY           SKY/WX    TMP DP  RH WIND       PRES   REMARKS
JACKSON INTL   FAIR      69  67  93 SE5       30.00S
JACKSON HAWKNS FAIR      70  69  97 CALM      30.00S
MADISON        FAIR      66  66 100 CALM      30.00R
MERIDIAN KEY   MOCLDY    69  67  93 CALM      30.01S
MERIDIAN NAS   MOCLDY    67  65  93 CALM      30.01S FOG
RAYMOND        FAIR      68  68 100 CALM      29.99S FOG
VICKSBURG VKS  SUNNY     70  70 100 CALM        N/A
$$

MSZ059>079-251200-
SOUTH MISSISSIPPI

CITY           SKY/WX    TMP DP  RH WIND       PRES   REMARKS
COLUMBIA       FOG       70  68  94 CALM      30.04S VSB<1/4
HATTIESBURG    FAIR      70  69  97 SE3       30.01R
LAUREL         FAIR      69  69 100 CALM      30.01S
MCCOMB         FAIR      69  66  90 CALM      30.00S
NATCHEZ        FAIR      70  68  93 CALM      30.00S
PINE BELT      FAIR      68  68 100 CALM      30.02R
$$

MSZ080>082-251200-
COASTAL MISSISSIPPI

CITY           SKY/WX    TMP DP  RH WIND       PRES   REMARKS
BILOXI         LGT RAIN  73  70  91 SW10      29.98F
PASCAGOULA     FAIR      72  69  90 MISG      29.99S
GULFPORT       CLOUDY    74  70  87 CALM      29.99R
$$

LAZ007>009-015>016-023>026-251200-
NORTHEAST LOUISIANA

CITY           SKY/WX    TMP DP  RH WIND       PRES   REMARKS
BASTROP        FAIR      68  67  98 CALM      29.99R
TALLULAH/VBURG FAIR      70  70 100 CALM      29.99S
VIDALIA        FAIR      73  72  95 CALM      29.98S
$$